sat.trackr.live / text

‹ back to catalog

STARLINK-33682

NORAD 63433 · 2025-069A

PAYLOAD ACTIVE UNKNOWN

§ Identity

Operator
Country
US
Launch date
2025-04-04
Launch site
AFWTR
Launch vehicle
Mass (kg)
RCS (m²)

Purposes: comms

External: N2YO · Heavens-Above · Gunter

§ Orbital elements

Epoch: 2026-09-20T10:07:20.787168Z

Period
93.85 min
Inclination
53.1582°
Eccentricity
0.0001354
Mean motion
15.34400309 rev/d
Perigee alt
461.8 km
Apogee alt
463.6 km
Semi-major
6,840.8 km
B*
3.3959e-5
RAAN
308.3992°
Arg perigee
55.9627°
Mean anomaly
304.1504°
Rev number
8,335

§ Raw data

STARLINK-336821 63433U 25069A   26263.42176837  .00000771  00000+0  33959-4 0  99952 63433  53.1582 308.3992 0001354  55.9627 304.1504 15.34400309 83351

JSON: /api/v1/satellites/63433 · /tle

For live sub-satellite position, see the globe view (requires WebGL).

§ Visibility from observer

Set your observer location to see the next 7 days of passes ≥ 10°. The values pass through the URL so the page stays shareable.

No JS? Fill the form by hand. The geolocation button needs JavaScript.